Date String (YYYY-MM-DD hh:mm:ss) UTC,Instrument flags,Ambient pressure (hPa),Sample flow (lpm),Bypass flow (lpm),Sample temperature (°C),Ambient temperature (°C),ASC tube jacket temperature (°C),LED temperature (°C),Box temperature (°C),Sample RH (%),Span deviation,Mass concentration (μg/m³),Mass concentration (μg/m³),Mass concentration (μg/m³)
DateTimeUTC,F1_M11,P_M11,Q1_M11,Q2_M11,T1_M11,T2_M11,T3_M11,T4_M11,T5_M11,U1_M11,ZSPAN_M11,X0_M11,X2_M11,X1_M11
2022-08-26 21:00:00,,0826.5,4.99,0.00,29.6,28.3,00.0,38.3,31.5,31.6,0000.0,0013.65,0006.24,0005.24
2022-08-26 21:01:00,,0826.5,5.00,0.00,29.6,28.5,00.0,38.3,31.6,31.0,0000.0,0014.21,0006.22,0005.25
2022-08-26 21:02:00,,0826.5,5.01,0.00,29.7,28.6,00.0,38.3,31.7,30.6,0000.0,0014.42,0006.28,0005.28
2022-08-26 21:03:00,,0826.5,4.99,0.00,29.7,28.8,00.0,38.3,31.7,30.5,0000.0,0014.35,0006.33,0005.31
2022-08-26 21:04:00,,0826.5,4.99,0.00,29.8,28.8,00.0,38.4,31.7,30.5,0000.0,0014.54,0006.33,0005.32
2022-08-26 21:05:00,,0826.5,5.00,0.00,29.8,28.0,00.0,38.4,31.7,30.6,0000.0,0014.74,0006.31,0005.33
2022-08-26 21:06:00,,0826.5,5.01,0.00,29.8,26.9,00.0,38.3,31.6,30.4,0000.0,0014.58,0006.32,0005.34
2022-08-26 21:07:00,,0826.5,4.99,0.00,29.7,26.7,00.0,38.3,31.5,30.1,0000.0,0014.98,0006.26,0005.34
2022-08-26 21:08:00,,0826.5,5.02,0.00,29.7,26.9,00.0,38.3,31.4,30.0,0001.3,0015.56,0006.26,0005.36
2022-08-26 21:09:00,,0826.5,5.00,0.00,29.6,27.2,00.0,38.3,31.4,29.7,0000.0,0016.43,0006.28,0005.37
2022-08-26 21:10:00,,0826.5,5.00,0.00,29.6,27.6,00.0,38.3,31.4,29.9,0000.0,0015.86,0006.20,0005.35
2022-08-26 21:11:00,,0826.5,4.99,0.00,29.6,27.9,00.0,38.3,31.5,30.1,0000.0,0015.87,0006.23,0005.33
2022-08-26 21:12:00,,0826.5,5.01,0.00,29.6,28.1,00.0,38.3,31.5,30.1,0000.0,0015.16,0006.28,0005.31
2022-08-26 21:13:00,,0826.6,5.00,0.00,29.7,28.3,00.0,38.3,31.6,30.7,0000.0,0014.95,0006.28,0005.29
2022-08-26 21:14:00,,0826.6,5.02,0.00,29.7,28.5,00.0,38.3,31.7,31.3,0000.0,0015.01,0006.30,0005.27
2022-08-26 21:15:00,,0826.6,5.00,0.00,29.7,28.7,00.0,38.4,31.7,31.6,0000.0,0015.37,0006.28,0005.25
2022-08-26 21:16:00,,0826.7,5.00,0.00,29.8,28.5,00.0,38.4,31.7,29.8,0000.0,0015.44,0006.29,0005.23
2022-08-26 21:17:00,,0826.6,5.01,0.00,29.8,27.4,00.0,38.4,31.7,29.4,0000.0,0015.28,0006.29,0005.21
2022-08-26 21:18:00,,0826.6,4.99,0.00,29.7,26.7,00.0,38.3,31.6,29.3,0000.0,0014.72,0006.34,0005.20
2022-08-26 21:19:00,,0826.6,5.01,0.00,29.7,26.7,00.0,38.3,31.5,29.7,0000.0,0014.14,0006.33,0005.16
2022-08-26 21:20:00,,0826.5,4.99,0.00,29.6,26.9,00.0,38.3,31.4,29.7,0000.0,0014.67,0006.31,0005.14
2022-08-26 21:21:00,,0826.6,5.00,0.00,29.6,27.3,00.0,38.2,31.4,29.9,0000.0,0014.71,0006.29,0005.14
2022-08-26 21:22:00,,0826.5,5.00,0.00,29.6,27.6,00.0,38.2,31.4,30.3,0000.0,0014.70,0006.23,0005.12
2022-08-26 21:23:00,,0826.6,5.00,0.00,29.6,27.8,00.0,38.3,31.4,31.2,0000.0,0014.50,0006.17,0005.12
2022-08-26 21:24:00,,0826.6,5.01,0.00,29.6,28.1,00.0,38.3,31.5,31.6,0000.0,0014.19,0006.11,0005.12
2022-08-26 21:25:00,,0826.7,5.00,0.00,29.6,28.3,00.0,38.3,31.6,30.9,0000.0,0013.72,0006.04,0005.11
2022-08-26 21:26:00,,0826.6,5.01,0.00,29.7,28.5,00.0,38.3,31.6,31.1,0000.0,0013.89,0006.04,0005.12
2022-08-26 21:27:00,,0826.7,5.00,0.00,29.7,28.6,00.0,38.3,31.7,31.4,0000.0,0014.30,0006.06,0005.14
2022-08-26 21:28:00,,0826.6,5.00,0.00,29.7,28.7,00.0,38.3,31.7,31.3,0000.0,0014.49,0006.10,0005.17
2022-08-26 21:29:00,,0826.5,5.00,0.00,29.8,27.8,00.0,38.3,31.7,31.1,0000.0,0014.24,0006.05,0005.18
2022-08-26 21:30:00,,0826.5,4.99,0.00,29.7,26.8,00.0,38.3,31.5,30.8,0000.0,0013.99,0006.00,0005.19
2022-08-26 21:31:00,,0826.5,5.00,0.00,29.7,26.7,00.0,38.3,31.5,30.9,0000.0,0012.60,0005.99,0005.20
2022-08-26 21:32:00,,0826.5,4.98,0.00,29.6,26.9,00.0,38.3,31.4,30.9,0000.0,0012.42,0006.04,0005.23
2022-08-26 21:33:00,,0826.5,5.00,0.00,29.6,27.1,00.0,38.2,31.3,31.0,0000.0,0013.14,0006.11,0005.26
2022-08-26 21:34:00,,0826.5,5.00,0.00,29.6,27.5,00.0,38.2,31.4,31.2,0000.0,0013.44,0006.16,0005.28
2022-08-26 21:35:00,,0826.5,4.99,0.00,29.6,27.8,00.0,38.2,31.4,31.5,0000.0,0014.07,0006.23,0005.30
2022-08-26 21:36:00,,0826.5,5.01,0.00,29.6,28.0,00.0,38.2,31.5,31.5,-000.1,0014.19,0006.26,0005.32
2022-08-26 21:37:00,,0826.5,5.00,0.00,29.6,28.3,00.0,38.3,31.5,31.5,-000.3,0013.56,0006.26,0005.31
2022-08-26 21:38:00,,0826.5,4.99,0.00,29.6,28.4,00.0,38.3,31.6,31.7,0000.1,0012.90,0006.21,0005.30
2022-08-26 21:39:00,,0826.5,5.02,0.00,29.7,28.6,00.0,38.3,31.6,30.2,0000.4,0013.49,0006.16,0005.28
2022-08-26 21:40:00,,0826.5,5.00,0.00,29.7,28.7,00.0,38.3,31.7,30.0,-000.3,0013.65,0006.18,0005.27
2022-08-26 21:41:00,,0826.5,5.00,0.00,29.8,28.1,00.0,38.3,31.7,30.0,-000.1,0013.85,0006.25,0005.28
2022-08-26 21:42:00,,0826.5,5.01,0.00,29.7,26.9,00.0,38.3,31.6,30.5,0000.2,0014.48,0006.28,0005.28
2022-08-26 21:43:00,,0826.5,5.00,0.00,29.7,26.5,00.0,38.3,31.5,31.5,0000.1,0014.22,0006.25,0005.27
2022-08-26 21:44:00,,0826.5,4.99,0.00,29.6,26.7,00.0,38.2,31.4,31.7,0000.3,0013.50,0006.23,0005.26
2022-08-26 21:45:00,,0826.5,5.00,0.00,29.6,27.0,00.0,38.2,31.3,31.7,-000.2,0013.48,0006.24,0005.25
2022-08-26 21:46:00,,0826.5,5.01,0.00,29.6,27.3,00.0,38.2,31.4,31.4,0000.0,0013.80,0006.21,0005.25
2022-08-26 21:47:00,,0826.5,4.99,0.00,29.6,27.7,00.0,38.2,31.4,31.7,0000.0,0013.77,0006.20,0005.23
2022-08-26 21:48:00,,0826.5,5.00,0.00,29.6,27.9,00.0,38.2,31.5,31.1,0000.0,0013.82,0006.20,0005.23
2022-08-26 21:49:00,,0826.5,5.00,0.00,29.6,28.1,00.0,38.2,31.5,31.3,0000.0,0013.98,0006.26,0005.23
2022-08-26 21:50:00,,0826.5,5.01,0.00,29.6,28.3,00.0,38.3,31.6,31.1,0000.0,0014.45,0006.29,0005.23
2022-08-26 21:51:00,,0826.5,5.00,0.00,29.7,28.5,00.0,38.3,31.6,31.2,0000.0,0014.81,0006.30,0005.23
2022-08-26 21:52:00,,0826.5,5.00,0.00,29.7,28.7,00.0,38.3,31.7,30.9,0000.0,0014.77,0006.26,0005.23
2022-08-26 21:53:00,,0826.5,5.00,0.00,29.7,28.7,00.0,38.3,31.7,30.9,0000.0,0015.06,0006.22,0005.23
2022-08-26 21:54:00,,0826.5,5.01,0.00,29.8,27.9,00.0,38.3,31.7,30.1,0000.0,0014.93,0006.22,0005.22
2022-08-26 21:55:00,,0826.5,4.99,0.00,29.7,26.7,00.0,38.3,31.5,30.0,0000.0,0014.93,0006.20,0005.21
2022-08-26 21:56:00,,0826.5,5.00,0.00,29.7,26.5,00.0,38.3,31.4,30.4,0000.0,0015.15,0006.17,0005.19
2022-08-26 21:57:00,,0826.5,5.00,0.00,29.6,26.7,00.0,38.2,31.3,30.9,0000.0,0014.44,0006.11,0005.18
2022-08-26 21:58:00,,0826.5,5.01,0.00,29.5,27.0,00.0,38.2,31.3,30.3,0000.0,0014.31,0006.11,0005.15
2022-08-26 21:59:00,,0826.5,5.00,0.00,29.5,27.4,00.0,38.2,31.3,29.2,0000.0,0014.42,0006.13,0005.14
